Humidity-temperature Sensor

Selected Measurement Type: Relative Humidity

 
Relative Humidity [%]     6 entries per hour
Showing data from 9/30/2020 (00:00:00 Z) to 9/23/2020 (00:01:00 Z)
Previous Next [ Day | 3-Days | 7-Days ]
First Last
Prev [ Day | 3-Days | 7-Days ] Next
First Last

Start Time:     :
End Time:     :     
Time (in GMT) :00 :50 :40 :30 :20 :10
Previous Next [ Day | 3-Days | 7-Days ]
First Last
Prev [ Day | 3-Days | 7-Days ] Next
First Last


123 => good data
MM => data is determined as missing
-- => data not received/configured
Back to Top Back to Top
9/30/2020 00:00 to 23:10 90.48 90.81 91.05 91.82 91.88 91.03
9/29/2020 23:00 to 22:10 91.61 91.61 91.20 90.81 90.27 90.50
9/29/2020 22:00 to 21:10 90.66 91.26 92.85 94.40 93.88 91.82
9/29/2020 21:00 to 20:10 92.02 91.82 91.63 91.84 91.07 92.13
9/29/2020 20:00 to 19:10 92.46 93.59 94.54 92.00 90.99 91.67
9/29/2020 19:00 to 18:10 92.95 93.32 93.34 93.01 92.75 92.99
9/29/2020 18:00 to 17:10 92.54 90.81 92.48 92.60 92.56 91.36
9/29/2020 17:00 to 16:10 91.78 92.52 93.74 93.06 93.26 94.83
9/29/2020 16:00 to 15:10 94.97 95.22 94.58 94.67 96.01 95.16
9/29/2020 15:00 to 14:10 96.52 97.22 98.01 98.05 97.78 98.17
9/29/2020 14:00 to 13:10 98.54 97.57 95.68 94.34 94.27 93.90
9/29/2020 13:00 to 12:10 93.84 94.44 94.79 94.93 94.19 94.23
9/29/2020 12:00 to 11:10 94.42 94.09 94.21 94.69 96.15 95.49
9/29/2020 11:00 to 10:10 95.28 94.31 93.57 93.22 94.05 96.89
9/29/2020 10:00 to 9:10 99.16 99.08 99.43 97.99 95.18 94.95
9/29/2020 09:00 to 8:10 95.02 94.56 93.84 92.62 91.84 92.35
9/29/2020 08:00 to 7:10 92.02 91.59 92.25 93.49 95.94 96.34
9/29/2020 07:00 to 6:10 95.37 92.37 94.50 94.17 94.11 93.82
9/29/2020 06:00 to 5:10 92.52 91.34 90.77 90.54 90.93 91.01
9/29/2020 05:00 to 4:10 90.44 90.64 90.91 91.74 92.13 91.82
9/29/2020 04:00 to 3:10 92.15 92.13 91.84 91.36 91.30 91.78
9/29/2020 03:00 to 2:10 92.81 94.21 95.82 97.27 97.37 97.95
9/29/2020 02:00 to 1:10 98.50 98.94 98.87 99.29 99.39 99.76
9/29/2020 01:00 to 0:10 100.26 99.29 98.19 97.84 97.39 97.24
9/29/2020 00:00 to 23:10 96.63 96.23 95.72 95.55 95.43 95.18
9/28/2020 23:00 to 22:10 95.14 95.10 95.43 95.99 96.67 96.96
9/28/2020 22:00 to 21:10 97.00 97.04 97.10 97.10 97.14 97.16
9/28/2020 21:00 to 20:10 97.27 97.35 97.62 97.80 98.34 98.44
9/28/2020 20:00 to 19:10 99.04 98.65 97.70 97.12 96.89 97.12
9/28/2020 19:00 to 18:10 97.29 97.60 98.17 98.52 99.08 99.97
9/28/2020 18:00 to 17:10 100.24 100.28 100.13 100.20 100.24 99.76
9/28/2020 17:00 to 16:10 99.51 99.74 99.64 99.51 99.45 98.90
9/28/2020 16:00 to 15:10 97.86 97.22 96.79 96.46 96.32 95.94
9/28/2020 15:00 to 14:10 96.30 95.94 95.72 95.08 95.04 94.69
9/28/2020 14:00 to 13:10 93.37 93.12 92.91 92.77 93.20 93.49
9/28/2020 13:00 to 12:10 94.34 95.12 94.97 94.34 93.82 94.62
9/28/2020 12:00 to 11:10 95.59 95.78 96.50 96.73 96.91 96.75
9/28/2020 11:00 to 10:10 96.34 96.69 96.30 96.19 96.13 97.04
9/28/2020 10:00 to 9:10 97.51 97.95 98.09 98.15 98.21 98.19
9/28/2020 09:00 to 8:10 97.88 97.84 97.82 97.57 97.51 97.39
9/28/2020 08:00 to 7:10 97.06 96.85 96.65 96.15 95.86 95.57
9/28/2020 07:00 to 6:10 95.37 95.22 95.74 95.80 95.57 95.66
9/28/2020 06:00 to 5:10 95.41 95.90 96.56 96.21 96.32 95.97
9/28/2020 05:00 to 4:10 95.80 95.18 95.49 96.19 96.71 96.79
9/28/2020 04:00 to 3:10 96.71 96.73 96.79 96.58 96.52 96.01
9/28/2020 03:00 to 2:10 95.90 95.39 95.06 94.93 94.89 95.47
9/28/2020 02:00 to 1:10 96.09 96.73 97.33 98.34 98.59 98.44
9/28/2020 01:00 to 0:10 98.40 98.11 98.11 98.07 98.05 97.88
9/28/2020 00:00 to 23:10 97.66 97.45 97.47 97.47 97.27 97.06
9/27/2020 23:00 to 22:10 96.81 96.17 95.80 95.61 95.59 95.35
9/27/2020 22:00 to 21:10 95.45 95.59 95.53 95.57 95.72 95.59
9/27/2020 21:00 to 20:10 95.39 95.61 95.66 95.64 95.57 95.72
9/27/2020 20:00 to 19:10 95.94 96.05 96.15 96.65 96.56 96.91
9/27/2020 19:00 to 18:10 96.91 97.29 97.31 97.29 97.45 97.39
9/27/2020 18:00 to 17:10 97.47 97.39 97.43 97.31 97.22 97.14
9/27/2020 17:00 to 16:10 97.12 97.24 97.35 97.68 97.70 97.57
9/27/2020 16:00 to 15:10 97.80 97.74 97.60 97.70 97.78 97.70
9/27/2020 15:00 to 14:10 97.55 97.60 97.60 97.76 97.68 97.60
9/27/2020 14:00 to 13:10 97.53 97.45 97.51 97.51 97.53 97.55
9/27/2020 13:00 to 12:10 97.86 98.17 98.50 98.94 99.27 99.54
9/27/2020 12:00 to 11:10 99.56 99.62 99.58 99.49 99.49 99.49
9/27/2020 11:00 to 10:10 99.45 99.43 99.41 99.31 99.35 99.37
9/27/2020 10:00 to 9:10 99.37 99.37 99.31 99.25 99.16 99.18
9/27/2020 09:00 to 8:10 99.02 98.85 98.77 98.92 98.98 98.96
9/27/2020 08:00 to 7:10 98.92 99.04 99.41 99.87 99.99 100.18
9/27/2020 07:00 to 6:10 100.11 100.03 99.89 99.78 99.66 99.47
9/27/2020 06:00 to 5:10 99.41 99.23 99.06 98.92 98.67 98.50
9/27/2020 05:00 to 4:10 98.28 98.09 97.97 97.76 97.68 97.62
9/27/2020 04:00 to 3:10 97.72 97.78 97.88 97.91 97.91 97.72
9/27/2020 03:00 to 2:10 97.57 97.29 97.12 97.02 97.31 97.33
9/27/2020 02:00 to 1:10 97.41 97.24 96.94 96.69 96.42 96.38
9/27/2020 01:00 to 0:10 96.09 95.61 95.14 94.56 94.77 95.70
9/27/2020 00:00 to 23:10 95.64 95.72 95.51 94.15 93.32 93.08
9/26/2020 23:00 to 22:10 93.16 93.30 93.63 93.53 93.51 93.92
9/26/2020 22:00 to 21:10 94.03 94.13 94.56 95.06 95.33 95.08
9/26/2020 21:00 to 20:10 95.02 94.73 94.71 94.50 93.84 93.14
9/26/2020 20:00 to 19:10 92.87 92.48 92.21 92.19 92.25 91.80
9/26/2020 19:00 to 18:10 91.47 91.76 91.71 92.07 92.50 92.97
9/26/2020 18:00 to 17:10 93.65 93.67 93.61 93.61 94.85 94.05
9/26/2020 17:00 to 16:10 93.30 92.97 92.00 92.44 92.07 91.59
9/26/2020 16:00 to 15:10 91.69 92.56 92.19 93.26 94.60 94.13
9/26/2020 15:00 to 14:10 93.49 92.87 93.16 92.87 92.64 92.11
9/26/2020 14:00 to 13:10 92.23 92.21 92.66 91.53 91.12 91.05
9/26/2020 13:00 to 12:10 91.80 91.98 91.76 91.18 93.72 92.99
9/26/2020 12:00 to 11:10 92.79 93.30 93.80 93.92 95.90 96.73
9/26/2020 11:00 to 10:10 96.52 95.99 95.51 97.41 97.80 97.95
9/26/2020 10:00 to 9:10 98.17 98.15 98.17 98.28 98.19 98.03
9/26/2020 09:00 to 8:10 97.91 97.95 97.84 97.60 97.37 97.24
9/26/2020 08:00 to 7:10 97.04 96.85 96.67 96.54 96.54 96.48
9/26/2020 07:00 to 6:10 96.11 96.01 96.40 96.61 97.04 97.14
9/26/2020 06:00 to 5:10 97.41 97.49 97.76 98.24 98.48 98.57
9/26/2020 05:00 to 4:10 98.59 98.52 98.54 98.48 98.30 98.17
9/26/2020 04:00 to 3:10 97.86 97.95 97.93 97.70 97.47 97.37
9/26/2020 03:00 to 2:10 97.45 97.35 97.41 97.14 97.12 97.14
9/26/2020 02:00 to 1:10 96.83 96.30 96.32 96.46 96.56 96.48
9/26/2020 01:00 to 0:10 96.65 96.52 96.30 96.32 96.13 95.88
9/26/2020 00:00 to 23:10 95.49 95.00 93.30 93.04 92.40 91.96
9/25/2020 23:00 to 22:10 91.57 91.16 91.32 91.49 92.56 93.28
9/25/2020 22:00 to 21:10 92.93 92.70 92.66 93.26 93.82 93.28
9/25/2020 21:00 to 20:10 93.12 93.70 93.80 93.80 93.45 93.12
9/25/2020 20:00 to 19:10 92.75 92.99 93.39 93.49 93.82 94.23
9/25/2020 19:00 to 18:10 94.13 94.23 93.94 94.29 93.84 93.61
9/25/2020 18:00 to 17:10 93.43 93.67 94.09 94.42 94.64 95.12
9/25/2020 17:00 to 16:10 95.35 95.41 95.47 95.37 95.39 95.49
9/25/2020 16:00 to 15:10 95.59 95.51 95.59 95.82 96.23 96.38
9/25/2020 15:00 to 14:10 96.67 96.91 97.31 97.22 97.16 97.08
9/25/2020 14:00 to 13:10 97.37 97.62 97.66 97.64 97.62 97.51
9/25/2020 13:00 to 12:10 97.35 97.37 97.22 97.27 97.04 96.69
9/25/2020 12:00 to 11:10 96.54 96.63 96.61 96.61 96.42 96.85
9/25/2020 11:00 to 10:10 97.04 97.10 97.04 96.94 97.08 97.31
9/25/2020 10:00 to 9:10 97.51 97.39 97.18 97.06 96.94 96.79
9/25/2020 09:00 to 8:10 96.98 96.83 96.77 96.69 96.63 96.61
9/25/2020 08:00 to 7:10 96.38 96.30 96.17 95.92 95.70 95.66
9/25/2020 07:00 to 6:10 95.59 95.24 95.18 95.12 94.69 93.84
9/25/2020 06:00 to 5:10 93.45 93.34 93.65 94.48 94.40 94.44
9/25/2020 05:00 to 4:10 94.00 94.11 94.54 94.85 94.73 95.18
9/25/2020 04:00 to 3:10 95.78 96.09 96.01 96.38 96.81 97.06
9/25/2020 03:00 to 2:10 97.06 97.20 96.94 97.00 96.71 96.65
9/25/2020 02:00 to 1:10 96.38 96.23 95.82 95.39 95.24 95.04
9/25/2020 01:00 to 0:10 94.87 94.81 94.62 94.91 95.12 94.52
9/25/2020 00:00 to 23:10 94.29 93.80 93.72 94.21 93.94 93.22
9/24/2020 23:00 to 22:10 92.89 92.44 92.83 93.12 93.41 93.47
9/24/2020 22:00 to 21:10 93.53 93.78 93.98 93.92 94.05 94.23
9/24/2020 21:00 to 20:10 94.50 94.79 95.59 95.88 95.94 95.55
9/24/2020 20:00 to 19:10 95.24 95.39 95.66 96.27 96.63 96.44
9/24/2020 19:00 to 18:10 95.90 95.33 94.95 95.37 96.58 96.73
9/24/2020 18:00 to 17:10 97.53 98.77 99.66 99.66 100.05 100.32
9/24/2020 17:00 to 16:10 99.95 99.84 99.39 98.92 98.96 98.81
9/24/2020 16:00 to 15:10 98.83 99.18 99.29 98.94 98.11 98.19
9/24/2020 15:00 to 14:10 98.71 99.10 98.71 99.47 99.80 99.35
9/24/2020 14:00 to 13:10 99.41 98.38 99.27 98.52 98.59 98.67
9/24/2020 13:00 to 12:10 98.48 97.70 96.17 95.08 94.95 95.35
9/24/2020 12:00 to 11:10 95.70 95.78 95.64 96.11 95.80 95.55
9/24/2020 11:00 to 10:10 95.18 95.24 95.66 95.33 95.59 96.56
9/24/2020 10:00 to 9:10 97.97 97.84 97.80 97.41 96.67 95.61
9/24/2020 09:00 to 8:10 95.43 94.44 94.07 93.49 94.48 95.12
9/24/2020 08:00 to 7:10 95.16 95.68 96.15 96.21 96.21 96.05
9/24/2020 07:00 to 6:10 95.64 95.41 95.00 94.93 94.87 94.38
9/24/2020 06:00 to 5:10 94.36 94.42 94.23 94.71 94.54 94.54
9/24/2020 05:00 to 4:10 94.48 94.77 94.79 94.97 94.87 94.60
9/24/2020 04:00 to 3:10 94.67 94.48 94.07 93.74 93.94 94.71
9/24/2020 03:00 to 2:10 95.55 96.48 95.33 94.38 93.59 93.39
9/24/2020 02:00 to 1:10 93.92 94.29 94.27 94.75 95.16 94.87
9/24/2020 01:00 to 0:10 95.10 95.39 95.20 94.93 95.18 95.86
9/24/2020 00:00 to 23:10 96.54 96.77 96.63 96.01 93.70 93.28
9/23/2020 23:00 to 22:10 93.06 92.58 91.84 92.11 92.99 92.64
9/23/2020 22:00 to 21:10 92.31 92.25 93.04 93.20 92.04 91.98
9/23/2020 21:00 to 20:10 92.15 92.46 91.96 91.67 91.24 90.64
9/23/2020 20:00 to 19:10 90.46 90.44 90.15 90.74 91.53 91.26
9/23/2020 19:00 to 18:10 90.91 91.05 91.24 91.61 91.24 90.70
9/23/2020 18:00 to 17:10 90.64 91.10 91.28 91.30 91.43 91.80
9/23/2020 17:00 to 16:10 91.98 92.29 92.27 92.17 92.15 91.90
9/23/2020 16:00 to 15:10 91.63 91.53 91.47 90.85 90.85 90.00
9/23/2020 15:00 to 14:10 90.27 90.23 90.39 89.92 89.80 89.57
9/23/2020 14:00 to 13:10 89.34 89.44 89.28 88.74 89.05 88.83
9/23/2020 13:00 to 12:10 89.20 89.32 89.75 89.88 89.82 90.62
9/23/2020 12:00 to 11:10 90.99 90.99 90.95 91.51 91.82 91.63
9/23/2020 11:00 to 10:10 91.28 91.84 92.23 92.54 92.68 93.10
9/23/2020 10:00 to 9:10 93.37 93.53 92.87 92.40 92.50 93.04
9/23/2020 09:00 to 8:10 92.89 92.77 92.37 92.29 92.15 92.40
9/23/2020 08:00 to 7:10 92.64 92.21 92.42 92.09 92.21 92.23
9/23/2020 07:00 to 6:10 92.29 91.78 91.63 91.80 92.02 92.13
9/23/2020 06:00 to 5:10 91.67 91.38 91.28 90.79 90.97 90.64
9/23/2020 05:00 to 4:10 90.54 90.58 90.74 90.44 90.27 90.95
9/23/2020 04:00 to 3:10 91.03 90.64 90.25 89.55 89.98 89.22
9/23/2020 03:00 to 2:10 88.99 89.16 89.22 88.50 88.41 88.58
9/23/2020 02:00 to 1:10 88.95 89.94 89.63 89.71 90.64 91.16
9/23/2020 01:00 to 0:10 90.37 90.31 90.44 89.80 90.02 89.26